Date,TemperatureHighF,TemperatureAvgF,TemperatureLowF,DewpointHighF,DewpointAvgF,DewpointLowF,HumidityHigh,HumidityAvg,HumidityLow,PressureMaxIn,PressureMinIn,WindSpeedMaxMPH,WindSpeedAvgMPH,GustSpeedMaxMPH,PrecipitationSumIn
2013-7-1,83.8,67.9,57.4,59.9,55.9,53.2,88,68,39,30.12,29.89,8,3,9,0.00
2013-7-2,87.6,68.9,52.7,59.9,55.3,49.5,91,65,34,30.14,29.65,5,1,7,0.00
2013-7-3,67.8,63.2,60.1,64.4,60.1,56.3,95,90,74,29.98,29.57,5,1,6,0.24
2013-7-4,91.9,69.9,60.3,64.2,60.2,57.7,92,74,39,30.28,29.92,9,2,9,0.00
2013-7-5,93.2,73.7,61.3,64.2,58.7,54.7,86,64,31,30.49,30.14,5,2,7,0.00
2013-7-6,94.5,73.9,57.4,64.4,57.7,52.2,84,60,33,30.49,30.30,4,1,5,0.00
2013-7-7,96.3,75.5,59.2,62.2,58.1,54.3,89,60,26,30.50,30.30,4,1,8,0.00
2013-7-8,94.5,72.7,58.1,63.5,57.3,52.2,90,63,31,30.52,30.34,8,1,9,0.00
2013-7-9,92.7,72.1,56.7,57.9,54.6,51.1,87,59,26,30.50,30.11,5,1,7,0.00
2013-7-10,84.0,65.4,58.5,60.8,55.1,48.9,88,71,38,30.26,30.09,6,1,11,0.00
2013-7-11,77.2,64.9,58.5,53.6,50.9,48.6,73,61,43,30.27,30.09,6,2,7,0.00
2013-7-12,81.1,63.0,53.4,59.0,53.5,47.7,81,72,46,30.28,30.11,5,1,7,0.00
2013-7-13,89.8,70.1,57.7,61.5,56.4,53.8,89,65,36,30.29,30.10,6,1,7,0.00
2013-7-14,90.0,68.4,55.6,63.7,57.5,52.2,90,71,39,30.36,30.13,4,0,5,0.00
2013-7-15,102.4,77.1,59.4,64.4,58.5,54.7,86,58,24,30.33,30.12,5,1,6,0.00
2013-7-16,93.2,72.9,57.9,63.9,57.2,51.1,89,62,33,30.32,30.12,3,0,4,0.00
2013-7-17,94.6,75.5,62.1,65.8,60.0,51.3,86,62,34,30.32,30.12,4,1,5,0.00
2013-7-18,99.1,77.1,62.4,68.2,62.1,57.6,92,65,29,30.35,30.17,6,1,9,0.00
2013-7-19,97.5,75.4,60.6,65.7,59.5,55.6,88,62,30,30.32,30.16,7,1,9,0.00
2013-7-20,80.8,69.8,64.8,62.4,59.5,58.1,85,71,51,30.32,30.04,5,1,6,0.00
2013-7-21,106.0,77.9,61.0,64.8,60.7,57.9,90,61,24,30.16,29.91,5,1,7,0.00
2013-7-22,94.1,81.6,67.5,67.5,63.6,61.7,84,57,36,30.03,29.85,5,1,6,0.00
2013-7-23,93.2,79.3,68.0,69.4,64.4,60.3,83,62,42,29.96,29.81,6,1,6,0.00
2013-7-24,80.8,72.3,65.8,66.0,62.0,57.7,83,71,55,29.99,29.77,7,2,8,0.00
2013-7-25,87.6,72.6,60.4,66.6,61.2,55.9,87,69,49,30.00,29.84,6,1,8,0.00
2013-7-26,80.8,72.8,65.3,72.7,64.8,60.6,87,77,59,29.97,29.81,4,1,6,0.06
2013-7-27,81.5,72.1,67.8,72.3,67.1,65.1,92,85,72,29.91,29.74,2,0,4,0.00
2013-7-28,79.0,74.2,67.1,62.1,61.2,60.1,78,65,56,29.86,29.78,4,2,6,0.27
2013-7-29,77.5,70.5,64.0,65.8,60.3,55.8,86,71,56,29.97,29.75,12,3,15,0.00
2013-7-30,76.6,67.4,62.4,64.6,60.4,55.9,91,79,61,30.07,29.78,8,2,10,0.41
2013-7-31,77.4,68.0,63.9,64.8,62.8,61.2,92,84,60,30.09,29.81,8,2,8,0.00